Погода в Васькове

Россия / Смоленская область     54°16′13″N   32°33′32″E
темп.,
°C
ветер,
м/с
пор.,
м/с
влажн.,
%
обл.,
%
осадки,
мм/ч
давл.,
гПа
погр.,
м
19 сентября, вс
вс1900:00+5в101993100 6.2 1013779
03:00+6в91894100 11.2 1012808
06:00+6в81594100 1.1 1012756
09:00+6в81594100 4.8 1011706
12:00+6в71495100 2.8 1011731
15:00+7в61295100 4.4 1011735
18:00+7в61195100 0.8 1011705
21:00+6в61195100 1.1 1011601
20 сентября, пн
пн2000:00+7всв61196100 0.1 1010597
03:00+6всв61195100 0.1 1010585
06:00+6всв61296100 0.1 1010603
09:00+6всв61295100 0.1 1010645
12:00+6св71395100 0.1 1010654
15:00+6св71396100 0.5 1009662
18:00+6св71495100 4.0 1009681
21:00+6св71394100 7.6 1010731
21 сентября, вт
вт2100:00+6св61295100 2.4 1010675
03:00+6св61195100 4.4 1010696
06:00+5св61095100 1.2 1010689
09:00+5ссв6997100 3.3 1010849
12:00+3с61197100 0.9 1011497
15:00+3с61097100 2.1 1012427
18:00+3с61097100 1.4 1012427
21:00+4с61198100 1.8 1013469
22 сентября, ср
ср2200:00+4с61097100 0.1 1013493
03:00+3с61097100 0.4 1014483
06:00+3с5998100 0.2 1014434
09:00+3с5998100 0.6 1014402
12:00+4с4897100 0.2 1014406
15:00+6с5796100 0.3 1014441
18:00+5с4897100 0.1 1014450
21:00+5с4897100 0.2 1014465
23 сентября, чт
чт2300:00+5ссз3596100 0.8 1013398
03:00+4ссз2498100 1.2 1012607
06:00+4сз2293100 0.1 1011157
09:00+5з2394100 0.2 1011236
12:00+5юз2392100 0.1 1010837
15:00+6юз3490100 0.3 1010858
18:00+5ююз3695100 0.3 1009348
21:00+5ююз4796100 0.4 1008767